Flag for U.S.A. Weather past 2 weeks in Daytona Beach, Florida, U.S.A.

Now
70 °F

Clear.


Feels Like: 68 °F
Forecast: 65 / 82 °F
Wind: 9 mph from South

Location: Daytona Beach Regional Airport

Current Time: Mar 5, 2015 at 2:20:32 AM

Latest Report: Mar 5, 2015 at 1:53 AM


Visibility: 10 mi

Pressure: 30.08 "Hg

Humidity: 87%

Dew point: 66 °F

Location of Daytona BeachLocation

Historic Weather in Daytona Beach — Graph

°F

Daytona Beach temperature yesterday

Maximum temperature yesterday: 85 °F (at 1:53 PM)
Minimum temperature yesterday: 65 °F (at 6:53 AM)
Average temperature yesterday: 75 °F

Past Weeks' High & Low Weather Summary

 TemperatureHumidityPressure
High100 °F (Feb 19, 6:53 AM)100% (Mar 2, 4:53 AM)30.45 "Hg (Mar 2, 4:53 AM)
Low31 °F (Feb 20, 6:53 AM)5% (Feb 19, 6:53 AM)29.63 "Hg (Feb 26, 3:53 AM)
Average61 °F75%30.17 "Hg
* Reported Feb 18 12:53 AM — Mar 5 12:53 AM, Daytona Beach, Weather by CustomWeather, © 2015

Note: Actual official high and low records may vary slightly from our data, if they occured in-between our weather recording intervals... More about our weather records

Advertising

Daytona Beach weather history for previous 24 hours

 ConditionsComfort  
Time TempWeatherWind HumidityBarometerVisibility
12:53 AM
Thu, Mar 5
71 °FPassing clouds.6 mph84%30.08 "Hg10 mi
11:53 PM
Wed, Mar 4
71 °FPassing clouds.7 mph84%30.09 "Hg10 mi
10:53 PM72 °FClear.9 mph81%30.09 "Hg10 mi
9:53 PM73 °FClear.8 mph79%30.09 "Hg10 mi
8:53 PM73 °FClear.6 mph79%30.09 "Hg10 mi
7:53 PM75 °FClear.10 mph76%30.08 "Hg10 mi
6:53 PM77 °FPassing clouds.9 mph69%30.06 "Hg10 mi
5:53 PM79 °FPassing clouds.7 mph67%30.05 "Hg10 mi
4:53 PM84 °FPassing clouds.7 mph48%30.05 "Hg10 mi
3:53 PM85 °FPassing clouds.14 mph46%30.06 "Hg10 mi
2:53 PM85 °FPassing clouds.9 mph46%30.07 "Hg10 mi
1:53 PM85 °FScattered clouds.12 mph46%30.10 "Hg10 mi
12:53 PM83 °FScattered clouds.13 mph51%30.12 "Hg10 mi
11:53 AM81 °FScattered clouds.10 mph58%30.15 "Hg10 mi
10:53 AM79 °FScattered clouds.13 mph62%30.17 "Hg10 mi
9:53 AM77 °FScattered clouds.14 mph71%30.18 "Hg10 mi
8:53 AM72 °FScattered clouds.No wind93%30.19 "Hg10 mi
7:53 AM68 °FPassing clouds.No wind96%30.17 "Hg7 mi
6:53 AM65 °FFog.No wind97%30.15 "Hg2 mi
5:53 AM66 °FFog.No wind96%30.13 "Hg7 mi
4:53 AM67 °FClear.5 mph97%30.11 "Hg9 mi
3:53 AM67 °FClear.5 mph97%30.11 "Hg10 mi
2:53 AM68 °FClear.6 mph93%30.11 "Hg10 mi
Weather by CustomWeather, © 2015

See weather overviewHow to use our weather pages